CSN115 ESGG-EGLL

Flight info

Callsign CSN115
Flight time 1h 37m
Altitude 40000
Route VADIN3M VADIN DCT ABINO DCT ATTUS DCT BEDUM DCT SPY DCT ABNED L980 LOGAN LOGAN2H
Aircraft B77W/H-SDE1E2E3FGHIJ2J3J4J5M1RWXY/LB1D1

Departure

Time 2026-05-05 07:07
Airport Göteborg Landvetter Airport (ESGG)

Arrival

Time 2026-05-05 08:44
Airport London Heathrow Airport (EGLL)
Time Latitude Longitude Altitude Speed Heading
2026-05-05 06:48 57.66541 12.29081 521 ft 0 kts 115°
2026-05-05 06:59 57.66541 12.29082 521 ft 0 kts 115°
2026-05-05 06:59 57.66546 12.29064 521 ft 2 kts 115°
2026-05-05 06:59 57.66552 12.29038 521 ft 2 kts 115°
2026-05-05 06:59 57.66559 12.29013 520 ft 2 kts 115°
2026-05-05 07:00 57.66565 12.28988 520 ft 2 kts 125°
2026-05-05 07:00 57.66577 12.28973 519 ft 2 kts 173°
2026-05-05 07:00 57.66588 12.28974 519 ft 0 kts 205°
2026-05-05 07:00 57.66597 12.28982 519 ft 1 kts 206°
2026-05-05 07:01 57.66598 12.28983 519 ft 0 kts 206°
2026-05-05 07:02 57.66593 12.28979 519 ft 3 kts 206°
2026-05-05 07:02 57.66531 12.28961 520 ft 14 kts 172°
2026-05-05 07:02 57.66411 12.28891 522 ft 21 kts 205°
2026-05-05 07:02 57.66277 12.28768 525 ft 21 kts 214°
2026-05-05 07:03 57.66281 12.28518 523 ft 23 kts 300°
2026-05-05 07:03 57.66229 12.28278 518 ft 25 kts 206°
2026-05-05 07:03 57.66066 12.28135 518 ft 26 kts 206°
2026-05-05 07:03 57.65895 12.27971 518 ft 28 kts 206°
2026-05-05 07:04 57.65716 12.27812 518 ft 29 kts 207°
2026-05-05 07:04 57.65525 12.27641 517 ft 31 kts 205°
2026-05-05 07:04 57.65326 12.27455 513 ft 33 kts 208°
2026-05-05 07:04 57.65168 12.27311 507 ft 21 kts 208°
2026-05-05 07:05 57.65031 12.27187 502 ft 22 kts 204°
2026-05-05 07:05 57.64890 12.27054 499 ft 18 kts 218°
2026-05-05 07:05 57.64883 12.26951 497 ft 4 kts 302°
2026-05-05 07:05 57.64888 12.26935 497 ft 0 kts 297°
2026-05-05 07:06 57.64892 12.26920 497 ft 4 kts 300°
2026-05-05 07:06 57.64936 12.26864 496 ft 10 kts 345°
2026-05-05 07:06 57.65025 12.26858 495 ft 14 kts 14°
2026-05-05 07:06 57.65131 12.26935 497 ft 17 kts 26°
2026-05-05 07:07 57.65276 12.27067 502 ft 35 kts 25°
2026-05-05 07:07 57.65775 12.27514 512 ft 125 kts 25°
2026-05-05 07:07 57.66817 12.28432 563 ft 198 kts 24°
2026-05-05 07:07 57.68029 12.29622 1516 ft 190 kts 24°
2026-05-05 07:08 57.69218 12.30682 2351 ft 197 kts 22°
2026-05-05 07:08 57.70366 12.32253 2798 ft 220 kts 45°
2026-05-05 07:08 57.71142 12.34829 3331 ft 239 kts 70°
2026-05-05 07:08 57.71285 12.38007 3919 ft 259 kts 97°
2026-05-05 07:09 57.70591 12.41248 4505 ft 277 kts 127°
2026-05-05 07:09 57.69191 12.43666 5280 ft 282 kts 146°
2026-05-05 07:09 57.67402 12.45106 6116 ft 282 kts 172°
2026-05-05 07:09 57.65472 12.45565 6996 ft 283 kts 178°
2026-05-05 07:10 57.63555 12.45941 7939 ft 283 kts 178°
2026-05-05 07:10 57.61609 12.46248 8763 ft 282 kts 188°
2026-05-05 07:10 57.59758 12.45410 9580 ft 275 kts 207°
2026-05-05 07:10 57.58022 12.43952 10411 ft 276 kts 212°
2026-05-05 07:11 57.56241 12.42305 10934 ft 290 kts 212°
2026-05-05 07:11 57.54393 12.40568 11438 ft 305 kts 212°
2026-05-05 07:11 57.52475 12.38772 12169 ft 311 kts 212°
2026-05-05 07:11 57.50529 12.36957 12997 ft 314 kts 212°
2026-05-05 07:12 57.48580 12.35140 13860 ft 315 kts 213°
2026-05-05 07:12 57.46599 12.33294 14703 ft 317 kts 212°
2026-05-05 07:12 57.44670 12.31338 15465 ft 316 kts 220°
2026-05-05 07:12 57.43017 12.28616 16118 ft 316 kts 232°
2026-05-05 07:13 57.41604 12.25540 16895 ft 317 kts 233°
2026-05-05 07:13 57.40202 12.22413 17745 ft 317 kts 233°
2026-05-05 07:13 57.38797 12.19284 18450 ft 320 kts 233°
2026-05-05 07:13 57.37356 12.16080 19112 ft 325 kts 233°
2026-05-05 07:14 57.35893 12.12838 19795 ft 328 kts 233°
2026-05-05 07:14 57.34414 12.09567 20466 ft 332 kts 233°
2026-05-05 07:14 57.32927 12.06282 21121 ft 335 kts 233°
2026-05-05 07:14 57.31424 12.02968 21758 ft 339 kts 233°
2026-05-05 07:15 57.29886 11.99578 22370 ft 343 kts 233°
2026-05-05 07:15 57.28368 11.96239 22997 ft 346 kts 233°
2026-05-05 07:15 57.26808 11.92815 23628 ft 348 kts 233°
2026-05-05 07:15 57.25248 11.89394 24209 ft 352 kts 233°
2026-05-05 07:16 57.23667 11.85931 24772 ft 355 kts 233°
2026-05-05 07:16 57.22083 11.82466 25319 ft 359 kts 233°
2026-05-05 07:16 57.20471 11.78945 25900 ft 362 kts 233°
2026-05-05 07:16 57.18846 11.75403 26433 ft 365 kts 233°
2026-05-05 07:17 57.17204 11.71826 26981 ft 368 kts 233°
2026-05-05 07:17 57.15542 11.68214 27493 ft 372 kts 233°
2026-05-05 07:17 57.13816 11.64671 27951 ft 378 kts 228°
2026-05-05 07:17 57.11800 11.61486 28455 ft 383 kts 223°
2026-05-05 07:18 57.09695 11.58395 28970 ft 385 kts 223°
2026-05-05 07:18 57.07609 11.55343 29425 ft 389 kts 223°
2026-05-05 07:18 57.05486 11.52240 29860 ft 392 kts 223°
2026-05-05 07:18 57.03303 11.49057 30299 ft 396 kts 223°
2026-05-05 07:19 57.01153 11.45925 30756 ft 398 kts 223°
2026-05-05 07:19 56.98961 11.42738 31183 ft 401 kts 223°
2026-05-05 07:19 56.96793 11.39590 31576 ft 404 kts 223°
2026-05-05 07:19 56.94584 11.36386 31933 ft 408 kts 223°
2026-05-05 07:20 56.92336 11.33132 32307 ft 411 kts 221°
2026-05-05 07:20 56.90088 11.29883 32762 ft 413 kts 221°
2026-05-05 07:20 56.87853 11.26658 33184 ft 415 kts 221°
2026-05-05 07:20 56.85571 11.23370 33493 ft 420 kts 221°
2026-05-05 07:21 56.83274 11.20065 33811 ft 424 kts 221°
2026-05-05 07:21 56.79258 11.14300 33943 ft 433 kts 221°
2026-05-05 07:21 56.76860 11.10867 34370 ft 434 kts 221°
2026-05-05 07:22 56.74492 11.07483 34921 ft 432 kts 221°
2026-05-05 07:22 56.72118 11.04095 35240 ft 433 kts 221°
2026-05-05 07:22 56.69742 11.00708 35405 ft 439 kts 221°
2026-05-05 07:22 56.67320 10.97262 35580 ft 443 kts 221°
2026-05-05 07:23 56.64891 10.93811 35773 ft 445 kts 221°
2026-05-05 07:23 56.62443 10.90341 35992 ft 447 kts 221°
2026-05-05 07:23 56.60001 10.86884 36221 ft 448 kts 221°
2026-05-05 07:23 56.57567 10.83446 36567 ft 448 kts 221°
2026-05-05 07:24 56.55100 10.79966 36946 ft 447 kts 221°
2026-05-05 07:24 56.52671 10.76546 37254 ft 447 kts 221°
2026-05-05 07:24 56.50204 10.73077 37516 ft 449 kts 221°
2026-05-05 07:24 56.47753 10.69637 37764 ft 450 kts 221°
2026-05-05 07:25 56.45281 10.66173 38029 ft 450 kts 221°
2026-05-05 07:25 56.42821 10.62733 38323 ft 449 kts 221°
2026-05-05 07:25 56.40354 10.59287 38586 ft 449 kts 221°
2026-05-05 07:25 56.37867 10.55820 38812 ft 449 kts 221°
2026-05-05 07:26 56.35419 10.52413 39031 ft 450 kts 221°
2026-05-05 07:26 56.32951 10.48982 39212 ft 450 kts 221°
2026-05-05 07:26 56.30490 10.45569 39363 ft 451 kts 221°
2026-05-05 07:26 56.28004 10.42125 39506 ft 452 kts 221°
2026-05-05 07:27 56.25495 10.38657 39660 ft 453 kts 221°
2026-05-05 07:27 56.23014 10.35233 39806 ft 453 kts 221°
2026-05-05 07:27 56.20530 10.31811 39923 ft 454 kts 220°
2026-05-05 07:28 56.15516 10.24919 39928 ft 454 kts 220°
2026-05-05 07:28 56.10525 10.18083 39944 ft 453 kts 220°
2026-05-05 07:29 56.05524 10.11256 39951 ft 454 kts 220°
2026-05-05 07:29 56.00510 10.04433 39940 ft 453 kts 220°
2026-05-05 07:30 55.95438 9.97821 39958 ft 455 kts 216°
2026-05-05 07:30 55.87501 9.88541 39948 ft 457 kts 216°
2026-05-05 07:31 55.82149 9.82317 39947 ft 462 kts 216°
2026-05-05 07:31 55.76729 9.76034 39947 ft 467 kts 216°
2026-05-05 07:32 55.71286 9.69747 39948 ft 470 kts 216°
2026-05-05 07:32 55.65782 9.63412 39948 ft 473 kts 216°
2026-05-05 07:33 55.60226 9.57038 39952 ft 474 kts 216°
2026-05-05 07:33 55.54670 9.50687 39957 ft 475 kts 216°
2026-05-05 07:34 55.49107 9.44348 39961 ft 476 kts 216°
2026-05-05 07:34 55.43544 9.38031 39961 ft 476 kts 216°
2026-05-05 07:35 55.37996 9.31752 39966 ft 477 kts 215°
2026-05-05 07:35 55.32426 9.25471 39966 ft 478 kts 215°
2026-05-05 07:36 55.26850 9.19204 39963 ft 478 kts 215°
2026-05-05 07:36 55.21279 9.12962 39965 ft 479 kts 215°
2026-05-05 07:37 55.15631 9.06657 39964 ft 479 kts 214°
2026-05-05 07:37 55.10016 9.00409 39961 ft 479 kts 214°
2026-05-05 07:38 55.04395 8.94175 39952 ft 480 kts 214°
2026-05-05 07:38 54.98743 8.87930 39954 ft 480 kts 214°
2026-05-05 07:39 54.93101 8.81715 39949 ft 480 kts 214°
2026-05-05 07:39 54.87713 8.74997 39951 ft 477 kts 222°
2026-05-05 07:40 54.82700 8.67541 39949 ft 477 kts 223°
2026-05-05 07:40 54.77681 8.60101 39951 ft 477 kts 222°
2026-05-05 07:41 54.72631 8.52652 39949 ft 478 kts 222°
2026-05-05 07:41 54.67576 8.45227 39956 ft 478 kts 223°
2026-05-05 07:42 54.62517 8.37824 39955 ft 478 kts 222°
2026-05-05 07:42 54.57435 8.30413 39960 ft 479 kts 221°
2026-05-05 07:43 54.52357 8.23036 39954 ft 479 kts 221°
2026-05-05 07:43 54.47269 8.15668 39960 ft 479 kts 221°
2026-05-05 07:44 54.42186 8.08332 39961 ft 479 kts 221°
2026-05-05 07:44 54.37109 8.01031 39967 ft 480 kts 221°
2026-05-05 07:45 54.31994 7.93699 39969 ft 480 kts 221°
2026-05-05 07:45 54.26881 7.86395 39967 ft 480 kts 221°
2026-05-05 07:46 54.21768 7.79116 39968 ft 481 kts 221°
2026-05-05 07:46 54.16609 7.71795 39968 ft 481 kts 221°
2026-05-05 07:47 54.11477 7.64538 39968 ft 481 kts 221°
2026-05-05 07:47 54.06334 7.57287 39967 ft 481 kts 221°
2026-05-05 07:48 54.01183 7.50052 39968 ft 482 kts 221°
2026-05-05 07:48 53.96045 7.42856 39966 ft 482 kts 221°
2026-05-05 07:49 53.90871 7.35636 39959 ft 482 kts 221°
2026-05-05 07:49 53.85720 7.28470 39967 ft 483 kts 220°
2026-05-05 07:50 53.80577 7.21340 39974 ft 483 kts 220°
2026-05-05 07:50 53.75389 7.14170 39973 ft 483 kts 220°
2026-05-05 07:51 53.70198 7.07020 39972 ft 483 kts 220°
2026-05-05 07:51 53.65008 6.99896 39973 ft 483 kts 220°
2026-05-05 07:52 53.59813 6.92786 39958 ft 483 kts 220°
2026-05-05 07:52 53.54611 6.85691 39976 ft 482 kts 220°
2026-05-05 07:53 53.49435 6.78654 39961 ft 482 kts 220°
2026-05-05 07:53 53.44213 6.71579 39968 ft 482 kts 220°
2026-05-05 07:54 53.39004 6.64544 39960 ft 482 kts 220°
2026-05-05 07:54 53.34037 6.57169 39957 ft 480 kts 230°
2026-05-05 07:55 53.29955 6.48308 39953 ft 480 kts 234°
2026-05-05 07:55 53.26132 6.39777 39953 ft 480 kts 234°
2026-05-05 07:56 53.22129 6.30913 39953 ft 480 kts 233°
2026-05-05 07:56 53.18108 6.22060 39952 ft 480 kts 233°
2026-05-05 07:57 53.14082 6.13240 39953 ft 480 kts 233°
2026-05-05 07:57 53.10061 6.04470 39953 ft 480 kts 233°
2026-05-05 07:58 53.06021 5.95689 39953 ft 480 kts 233°
2026-05-05 07:58 53.01979 5.86937 39951 ft 480 kts 233°
2026-05-05 07:59 52.97926 5.78192 39946 ft 480 kts 233°
2026-05-05 07:59 52.93842 5.69412 39947 ft 480 kts 233°
2026-05-05 08:00 52.89790 5.60731 39946 ft 480 kts 233°
2026-05-05 08:00 52.85704 5.52007 39946 ft 481 kts 233°
2026-05-05 08:01 52.81613 5.43303 39946 ft 481 kts 233°
2026-05-05 08:01 52.77555 5.34699 39945 ft 481 kts 232°
2026-05-05 08:02 52.73454 5.26031 39947 ft 481 kts 232°
2026-05-05 08:02 52.69346 5.17380 39947 ft 482 kts 232°
2026-05-05 08:03 52.65228 5.08737 39943 ft 482 kts 232°
2026-05-05 08:03 52.61106 5.00116 39941 ft 481 kts 232°
2026-05-05 08:04 52.57006 4.91570 39940 ft 481 kts 232°
2026-05-05 08:04 52.52892 4.82938 39938 ft 481 kts 236°
2026-05-05 08:05 52.49256 4.73738 39936 ft 481 kts 238°
2026-05-05 08:05 52.45645 4.64556 39942 ft 482 kts 237°
2026-05-05 08:06 52.42009 4.55418 39945 ft 482 kts 237°
2026-05-05 08:06 52.38387 4.46384 39941 ft 482 kts 237°
2026-05-05 08:07 52.34707 4.37259 39942 ft 482 kts 237°
2026-05-05 08:07 52.31017 4.28154 39944 ft 483 kts 236°
2026-05-05 08:08 52.27311 4.19048 39945 ft 483 kts 237°
2026-05-05 08:08 52.23604 4.09975 39944 ft 483 kts 237°
2026-05-05 08:09 52.19879 4.00893 39945 ft 483 kts 236°
2026-05-05 08:09 52.16126 3.91774 39940 ft 484 kts 236°
2026-05-05 08:10 52.14278 3.87296 39839 ft 486 kts 236°
2026-05-05 08:10 52.12383 3.82712 39501 ft 483 kts 236°
2026-05-05 08:10 52.10532 3.78242 39123 ft 478 kts 236°
2026-05-05 08:10 52.08693 3.73811 38679 ft 474 kts 236°
2026-05-05 08:11 52.06852 3.69380 38228 ft 471 kts 236°
2026-05-05 08:11 52.05026 3.64995 37775 ft 469 kts 236°
2026-05-05 08:11 52.03205 3.60627 37364 ft 467 kts 236°
2026-05-05 08:11 52.01395 3.56296 37013 ft 466 kts 236°
2026-05-05 08:12 51.99575 3.51947 36670 ft 465 kts 236°
2026-05-05 08:12 51.97744 3.47578 36366 ft 463 kts 236°
2026-05-05 08:12 51.95950 3.43304 36132 ft 461 kts 235°
2026-05-05 08:12 51.94150 3.39024 35893 ft 460 kts 235°
2026-05-05 08:13 51.92376 3.34814 35652 ft 458 kts 234°
2026-05-05 08:13 51.90585 3.30570 35405 ft 457 kts 234°
2026-05-05 08:13 51.88800 3.26347 35136 ft 456 kts 234°
2026-05-05 08:13 51.87050 3.22009 34760 ft 456 kts 238°
2026-05-05 08:14 51.85668 3.17406 34373 ft 460 kts 246°
2026-05-05 08:14 51.84683 3.12472 33985 ft 467 kts 254°
2026-05-05 08:14 51.84131 3.07337 33595 ft 471 kts 261°
2026-05-05 08:14 51.83811 3.02088 33205 ft 473 kts 262°
2026-05-05 08:15 51.83501 2.96812 32818 ft 474 kts 262°
2026-05-05 08:15 51.83179 2.91518 32425 ft 474 kts 262°
2026-05-05 08:15 51.82846 2.86194 32035 ft 473 kts 262°
2026-05-05 08:15 51.82513 2.80995 31655 ft 470 kts 262°
2026-05-05 08:16 51.82172 2.75767 31274 ft 466 kts 262°
2026-05-05 08:16 51.81829 2.70581 30885 ft 462 kts 262°
2026-05-05 08:16 51.81483 2.65422 30471 ft 460 kts 262°
2026-05-05 08:16 51.81137 2.60339 30065 ft 459 kts 262°
2026-05-05 08:17 51.80788 2.55260 29652 ft 457 kts 262°
2026-05-05 08:17 51.80437 2.50196 29245 ft 456 kts 262°
2026-05-05 08:17 51.80081 2.45101 28831 ft 453 kts 262°
2026-05-05 08:17 51.79729 2.40092 28420 ft 451 kts 262°
2026-05-05 08:18 51.79373 2.35072 28011 ft 449 kts 262°
2026-05-05 08:18 51.79017 2.30078 27608 ft 446 kts 262°
2026-05-05 08:18 51.78664 2.25167 27206 ft 445 kts 262°
2026-05-05 08:18 51.78314 2.20215 26799 ft 444 kts 262°
2026-05-05 08:19 51.78023 2.15267 26392 ft 442 kts 263°
2026-05-05 08:19 51.77744 2.10389 26002 ft 439 kts 263°
2026-05-05 08:19 51.77457 2.05447 25594 ft 438 kts 263°
2026-05-05 08:19 51.77174 2.00631 25190 ft 436 kts 263°
2026-05-05 08:20 51.76886 1.95766 24788 ft 435 kts 263°
2026-05-05 08:20 51.76594 1.90905 24262 ft 446 kts 263°
2026-05-05 08:20 51.76290 1.85908 23624 ft 454 kts 263°
2026-05-05 08:20 51.75981 1.80846 23080 ft 452 kts 263°
2026-05-05 08:21 51.75672 1.75815 22561 ft 449 kts 263°
2026-05-05 08:21 51.75365 1.70866 22044 ft 445 kts 263°
2026-05-05 08:21 51.75055 1.65896 21523 ft 442 kts 263°
2026-05-05 08:21 51.74748 1.61016 21009 ft 440 kts 263°
2026-05-05 08:22 51.74439 1.56139 20488 ft 437 kts 263°
2026-05-05 08:22 51.74129 1.51293 19981 ft 434 kts 263°
2026-05-05 08:22 51.73824 1.46534 19476 ft 431 kts 264°
2026-05-05 08:22 51.73513 1.41744 18968 ft 428 kts 264°
2026-05-05 08:23 51.73202 1.36953 18458 ft 426 kts 264°
2026-05-05 08:23 51.72892 1.32232 17961 ft 423 kts 263°
2026-05-05 08:23 51.72586 1.27580 17465 ft 419 kts 263°
2026-05-05 08:23 51.72277 1.22919 16964 ft 416 kts 263°
2026-05-05 08:24 51.71971 1.18338 16468 ft 414 kts 263°
2026-05-05 08:24 51.71660 1.13708 16038 ft 410 kts 264°
2026-05-05 08:24 51.71353 1.09154 15967 ft 411 kts 264°
2026-05-05 08:24 51.71043 1.04589 15971 ft 412 kts 264°
2026-05-05 08:25 51.70731 1.00026 15969 ft 412 kts 264°
2026-05-05 08:25 51.70416 0.95448 15970 ft 411 kts 264°
2026-05-05 08:25 51.70100 0.90866 15971 ft 412 kts 264°
2026-05-05 08:25 51.69781 0.86277 15702 ft 413 kts 264°
2026-05-05 08:26 51.69464 0.81747 15213 ft 404 kts 264°
2026-05-05 08:26 51.69153 0.77322 14722 ft 396 kts 264°
2026-05-05 08:26 51.68844 0.72959 14230 ft 389 kts 264°
2026-05-05 08:26 51.68541 0.68700 13742 ft 382 kts 264°
2026-05-05 08:27 51.68236 0.64435 13247 ft 376 kts 264°
2026-05-05 08:27 51.67941 0.60317 12761 ft 371 kts 264°
2026-05-05 08:27 51.67645 0.56220 12270 ft 366 kts 264°
2026-05-05 08:27 51.67354 0.52201 11775 ft 362 kts 264°
2026-05-05 08:28 51.67064 0.48224 11284 ft 358 kts 264°
2026-05-05 08:28 51.66774 0.44269 10790 ft 354 kts 264°
2026-05-05 08:28 51.66485 0.40329 10291 ft 351 kts 264°
2026-05-05 08:28 51.66199 0.36462 9793 ft 348 kts 264°
2026-05-05 08:29 51.65916 0.32646 9298 ft 345 kts 264°
2026-05-05 08:29 51.65633 0.28856 8798 ft 342 kts 264°
2026-05-05 08:29 51.65348 0.25054 8298 ft 340 kts 264°
2026-05-05 08:30 51.64783 0.17554 7292 ft 336 kts 264°
2026-05-05 08:30 51.64505 0.13826 6815 ft 333 kts 265°
2026-05-05 08:30 51.64302 0.10156 6387 ft 329 kts 266°
2026-05-05 08:30 51.64117 0.06540 6028 ft 323 kts 266°
2026-05-05 08:31 51.63929 0.03015 5966 ft 308 kts 266°
2026-05-05 08:31 51.63745 -0.00343 5962 ft 294 kts 266°
2026-05-05 08:31 51.63565 -0.03585 5963 ft 288 kts 266°
2026-05-05 08:31 51.63388 -0.06739 5968 ft 282 kts 266°
2026-05-05 08:32 51.63211 -0.09888 5969 ft 285 kts 266°
2026-05-05 08:32 51.63029 -0.13091 5967 ft 286 kts 266°
2026-05-05 08:32 51.62850 -0.16245 5968 ft 286 kts 266°
2026-05-05 08:32 51.62667 -0.19423 5969 ft 286 kts 266°
2026-05-05 08:33 51.62485 -0.22587 5970 ft 285 kts 266°
2026-05-05 08:33 51.62299 -0.25811 5973 ft 286 kts 266°
2026-05-05 08:33 51.62116 -0.28970 5972 ft 286 kts 266°
2026-05-05 08:33 51.61930 -0.32141 5949 ft 280 kts 266°
2026-05-05 08:34 51.61751 -0.35183 5860 ft 267 kts 266°
2026-05-05 08:34 51.61579 -0.38085 5665 ft 256 kts 267°
2026-05-05 08:34 51.61414 -0.40891 5420 ft 248 kts 267°
2026-05-05 08:34 51.61252 -0.43607 5174 ft 243 kts 267°
2026-05-05 08:35 51.61091 -0.46313 4923 ft 241 kts 267°
2026-05-05 08:35 51.60930 -0.49008 4671 ft 239 kts 268°
2026-05-05 08:35 51.60770 -0.51682 4416 ft 238 kts 268°
2026-05-05 08:35 51.60609 -0.54350 4162 ft 237 kts 268°
2026-05-05 08:36 51.60450 -0.56980 3909 ft 236 kts 268°
2026-05-05 08:36 51.60289 -0.59616 3654 ft 236 kts 268°
2026-05-05 08:36 51.60128 -0.62251 3399 ft 235 kts 268°
2026-05-05 08:36 51.59967 -0.64881 3146 ft 234 kts 268°
2026-05-05 08:37 51.59810 -0.67452 2995 ft 231 kts 267°
2026-05-05 08:37 51.59647 -0.70084 2984 ft 236 kts 267°
2026-05-05 08:37 51.59484 -0.72732 2980 ft 243 kts 267°
2026-05-05 08:37 51.59313 -0.75479 2980 ft 245 kts 267°
2026-05-05 08:38 51.58905 -0.78111 2974 ft 247 kts 244°
2026-05-05 08:38 51.57758 -0.80090 2972 ft 251 kts 212°
2026-05-05 08:38 51.56083 -0.80866 2970 ft 252 kts 179°
2026-05-05 08:38 51.54391 -0.80244 2980 ft 251 kts 158°
2026-05-05 08:39 51.52683 -0.79587 2981 ft 252 kts 170°
2026-05-05 08:39 51.50942 -0.79347 2983 ft 252 kts 175°
2026-05-05 08:39 51.49248 -0.78712 2975 ft 249 kts 150°
2026-05-05 08:39 51.47995 -0.76886 2966 ft 235 kts 119°
2026-05-05 08:40 51.47495 -0.74587 2949 ft 205 kts 90°
2026-05-05 08:40 51.47554 -0.72459 2973 ft 179 kts 80°
2026-05-05 08:40 51.47663 -0.70539 2803 ft 170 kts 83°
2026-05-05 08:40 51.47680 -0.68695 2595 ft 164 kts 85°
2026-05-05 08:41 51.47678 -0.66863 2398 ft 163 kts 85°
2026-05-05 08:41 51.47682 -0.65079 2180 ft 156 kts 85°
2026-05-05 08:41 51.47691 -0.63286 1966 ft 159 kts 85°
2026-05-05 08:41 51.47697 -0.61535 1750 ft 158 kts 85°
2026-05-05 08:42 51.47704 -0.59786 1528 ft 154 kts 85°
2026-05-05 08:42 51.47711 -0.58096 1319 ft 147 kts 85°
2026-05-05 08:42 51.47718 -0.56498 1115 ft 144 kts 85°
2026-05-05 08:42 51.47723 -0.54908 925 ft 136 kts 86°
2026-05-05 08:43 51.47715 -0.53460 699 ft 130 kts 87°
2026-05-05 08:43 51.47697 -0.52010 498 ft 131 kts 88°
2026-05-05 08:43 51.47709 -0.50500 384 ft 139 kts 86°
2026-05-05 08:43 51.47727 -0.48948 267 ft 136 kts 85°
2026-05-05 08:44 51.47751 -0.47448 113 ft 132 kts 86°
2026-05-05 08:44 51.47767 -0.46153 89 ft 97 kts 90°
2026-05-05 08:44 51.47764 -0.45263 94 ft 62 kts 87°
2026-05-05 08:44 51.47688 -0.44819 97 ft 28 kts 144°
2026-05-05 08:45 51.47602 -0.44899 98 ft 17 kts 262°
2026-05-05 08:45 51.47594 -0.45101 98 ft 20 kts 263°
2026-05-05 08:45 51.47596 -0.45368 94 ft 27 kts 267°
2026-05-05 08:45 51.47594 -0.45690 91 ft 30 kts 270°
2026-05-05 08:46 51.47588 -0.46041 89 ft 29 kts 249°
2026-05-05 08:46 51.47514 -0.46288 87 ft 23 kts 276°
2026-05-05 08:46 51.47483 -0.46425 87 ft 9 kts 175°
2026-05-05 08:46 51.47444 -0.46417 87 ft 2 kts 176°
2026-05-05 08:47 51.47428 -0.46415 87 ft 0 kts 176°
2026-05-05 09:18 51.47436 -0.46416 87 ft 2 kts 176°
2026-05-05 09:19 51.47450 -0.46419 87 ft 2 kts 155°
2026-05-05 09:19 51.47463 -0.46433 87 ft 2 kts 130°
2026-05-05 09:19 51.47471 -0.46453 87 ft 2 kts 107°
2026-05-05 09:19 51.47473 -0.46476 87 ft 2 kts 85°
2026-05-05 09:20 51.47471 -0.46501 87 ft 2 kts 86°
2026-05-05 09:20 51.47471 -0.46524 87 ft 2 kts 87°
2026-05-05 09:20 51.47470 -0.46548 87 ft 2 kts 86°
2026-05-05 09:20 51.47469 -0.46571 87 ft 1 kts 86°
2026-05-05 09:21 51.47469 -0.46565 87 ft 3 kts 90°
2026-05-05 09:21 51.47457 -0.46527 86 ft 3 kts 136°
2026-05-05 09:21 51.47432 -0.46511 86 ft 2 kts 167°
2026-05-05 09:21 51.47427 -0.46509 86 ft 0 kts 167°